Bismarck, ND

9:45 PM CST on February 10, 2016 (GMT -0600)
Bismarck Municipal

Weather History for KBIS - February, 2013

Change the Weather History Date:

Thursday, February 7, 2013

  Actual Average Record
Temperature  
Mean Temperature 21 °F 16 °F  
Max Temperature 25 °F 26 °F 62 °F (1991)
Min Temperature 17 °F 5 °F -39 °F (1895)
Degree Days  
Heating Degree Days 44 49  
Month to date heating degree days 314 350  
Since 1 July heating degree days 5420 5468  
Cooling Degree Days 0 0  
Month to date cooling degree days 0 0  
Year to date cooling degree days 0 0  
Moisture  
Dew Point 18 °F    
Average Humidity 90    
Maximum Humidity 96    
Minimum Humidity 84    
Precipitation  
Precipitation 0.00 in 0.01 in 0.28 in (1937)
Month to date precipitation 0.09 0.09  
Year to date precipitation 0.34 0.52  
Snow  
Snow 0.00 in 0.30 in 5.80 in (1939)
Month to date snowfall 1.0 1.8  
Since 1 July snowfall 26.1 31.2  
Snow Depth 3.00 in    
Sea Level Pressure  
Sea Level Pressure 30.22 in    
Wind  
Wind Speed 10 mph (ESE)    
Max Wind Speed 15 mph    
Max Gust Speed 18 mph    
Visibility 7 miles    
Events      
T = Trace of Precipitation, MM = Missing Value Source: NWS Daily Summary

Daily Weather History Graph

Daily Weather History Graph

Search for Another Location

Airport or City:

Trip Planner

Search our weather history database for the weather conditions in past years. The results will help you decide how hot, cold, wet, or windy it might be!

Date:

Astronomy

Feb. 07, 2013 Rise Set
Actual Time 7:58 AM CST 5:56 PM CST
Civil Twilight 7:26 AM CST 6:27 PM CST
Nautical Twilight 6:51 AM CST 7:03 PM CST
Astronomical Twilight 6:15 AM CST 7:39 PM CST
Moon 5:45 AM CST (2/7) 3:17 PM CST (2/7)
Length of Visible Light 11h 01m
Length of Day
9h 57m
Waning Crescent, 9% of the Moon is Illuminated
Feb 7
Waning Crescent
Feb 10
New
Feb 17
First Quarter
Feb 25
Full
Mar 4
Last Quarter

Hourly Weather History & Observations

Time (CST) Temp. Windchill Dew Point Humidity Pressure Visibility Wind Dir Wind Speed Gust Speed Precip Events Conditions
12:52 AM 19.0 °F 11.1 °F 17.1 °F 92% 30.16 in 10.0 mi East 5.8 mph - N/A   Overcast
1:52 AM 19.0 °F 9.0 °F 16.0 °F 88% 30.16 in 9.0 mi East 8.1 mph - N/A   Overcast
2:03 AM 19.0 °F 10.0 °F 16.0 °F 88% 30.10 in 9.0 mi East 6.9 mph - N/A   Overcast
2:52 AM 19.0 °F 8.2 °F 15.1 °F 85% 30.17 in 10.0 mi East 9.2 mph - N/A   Overcast
3:52 AM 18.0 °F 6.9 °F 15.1 °F 88% 30.18 in 9.0 mi East 9.2 mph - N/A   Overcast
4:52 AM 18.0 °F 7.7 °F 15.1 °F 88% 30.19 in 8.0 mi ENE 8.1 mph - N/A   Overcast
5:52 AM 17.1 °F 7.6 °F 14.0 °F 88% 30.21 in 7.0 mi East 6.9 mph - N/A   Overcast
6:52 AM 17.1 °F 5.8 °F 15.1 °F 92% 30.21 in 6.0 mi East 9.2 mph - N/A   Overcast
7:52 AM 17.1 °F 4.3 °F 15.1 °F 92% 30.21 in 6.0 mi East 11.5 mph - N/A   Overcast
8:52 AM 17.1 °F 5.0 °F 14.0 °F 88% 30.24 in 7.0 mi East 10.4 mph - N/A   Overcast
9:52 AM 17.1 °F 5.0 °F 15.1 °F 92% 30.26 in 8.0 mi East 10.4 mph - N/A   Overcast
10:52 AM 18.0 °F 6.9 °F 15.1 °F 88% 30.28 in 8.0 mi East 9.2 mph - N/A   Overcast
11:52 AM 19.0 °F 6.8 °F 16.0 °F 88% 30.28 in 5.0 mi East 11.5 mph - N/A   Overcast
12:33 PM 19.0 °F 7.5 °F 17.1 °F 92% 30.18 in 2.5 mi East 10.4 mph - N/A   Overcast
12:52 PM 19.0 °F 8.2 °F 17.1 °F 92% 30.28 in 2.5 mi East 9.2 mph - N/A   Overcast
1:44 PM 19.9 °F 8.6 °F 19.0 °F 96% 30.17 in 3.0 mi East 10.4 mph - N/A   Overcast
1:52 PM 21.0 °F 10.6 °F 19.0 °F 92% 30.26 in 3.0 mi East 9.2 mph - N/A   Overcast
2:52 PM 21.9 °F 11.7 °F 19.0 °F 89% 30.24 in 5.0 mi ESE 9.2 mph - N/A   Overcast
3:52 PM 23.0 °F 13.1 °F 21.0 °F 92% 30.24 in 4.0 mi ESE 9.2 mph - N/A   Overcast
4:52 PM 24.1 °F 16.0 °F 21.9 °F 91% 30.24 in 4.0 mi ESE 6.9 mph - N/A   Overcast
5:52 PM 25.0 °F 17.1 °F 21.9 °F 88% 30.23 in 6.0 mi SE 6.9 mph - N/A   Overcast
6:29 PM 24.8 °F 13.4 °F 21.2 °F 86% 30.14 in 8.0 mi SSE 12.7 mph - N/A   Overcast
6:52 PM 25.0 °F 12.6 °F 21.9 °F 88% 30.24 in 7.0 mi SSE 15.0 mph - N/A   Overcast
7:52 PM 25.0 °F 14.8 °F 21.9 °F 88% 30.24 in 8.0 mi SE 10.4 mph - N/A   Overcast
8:52 PM 25.0 °F 15.5 °F 21.9 °F 88% 30.24 in 9.0 mi SSE 9.2 mph - N/A   Overcast
9:52 PM 25.0 °F 15.5 °F 21.9 °F 88% 30.24 in 8.0 mi SSE 9.2 mph - N/A   Overcast
10:17 PM 25.0 °F 15.5 °F 21.9 °F 88% 30.15 in 9.0 mi SSE 9.2 mph - N/A   Overcast
10:52 PM 25.0 °F 14.8 °F 21.9 °F 88% 30.23 in 10.0 mi SSE 10.4 mph - N/A   Overcast
11:52 PM 24.1 °F 13.1 °F 21.9 °F 91% 30.22 in 10.0 mi SSE 11.5 mph - N/A   Overcast